Location: Unspecified
(0.0000°N, 0.0000°E)
Time: 19:04:35
(UTC+00:00)

Tiros 1 - Pass Details

Date: 27 November 2019
Orbit: 630 x 664 km, 48.4° (Epoch: 08 December)

Event Time Altitude Azimuth Distance (km) Brightness Sun altitude
Rises 06:41:52 0° 187° (S) 2,971 10.8 12.7°
Reaches altitude 10° 06:45:23 10° 160° (SSE) 2,050 10.4 13.5°
Maximum altitude 06:47:42 14° 131° (SE) 1,816 11.2 14.0°
Drops below altitude 10° 06:50:01 10° 101° (E) 2,036 12.0 14.6°
Sets 06:53:28 0° 74° (ENE) 2,934 11.4 15.4°
